[TLELIST] Archives

 

[TLELIST] Current TLEs

March 24th 2026 PDT

0 HST 1 20580U 90037B 26083.29665413 .00006906 00000-0 22540-3 0 9996 2 20580 28.4720 300.3408 0001498 295.0290 65.0150 15.29703540775559 0 ISS (ZARYA) 1 25544U 98067A 26083.16360592 .00014170 00000-0 26927-3 0 9993 2 25544 51.6345 0.8084 0006268 226.2093 133.8378 15.48514008558571 0 CXO 1 25867U 99040B 26084.75190710 .00000929 00000-0 00000-0 0 9990 2 25867 54.8542 119.0759 7976359 310.7061 359.9918 0.37805875 17009 ...Continue Reading

[TLELIST] Current TLEs

March 24th 2026 PDT

0 HST 1 20580U 90037B 26083.29665413 .00006906 00000-0 22540-3 0 9996 2 20580 28.4720 300.3408 0001498 295.0290 65.0150 15.29703540775559 0 ISS (ZARYA) 1 25544U 98067A 26083.16360592 .00014170 00000-0 26927-3 0 9993 2 25544 51.6345 0.8084 0006268 226.2093 133.8378 15.48514008558571 0 CXO 1 25867U 99040B 26084.75190710 .00000929 00000-0 00000-0 0 9990 2 25867 54.8542 119.0759 7976359 310.7061 359.9918 0.37805875 17009 ...Continue Reading

[TLELIST] Current TLEs

March 24th 2026 PDT

0 HST 1 20580U 90037B 26083.29665413 .00006906 00000-0 22540-3 0 9996 2 20580 28.4720 300.3408 0001498 295.0290 65.0150 15.29703540775559 0 ISS (ZARYA) 1 25544U 98067A 26083.16360592 .00014170 00000-0 26927-3 0 9993 2 25544 51.6345 0.8084 0006268 226.2093 133.8378 15.48514008558571 0 CXO 1 25867U 99040B 26084.75190710 .00000929 00000-0 00000-0 0 9990 2 25867 54.8542 119.0759 7976359 310.7061 359.9918 0.37805875 17009 ...Continue Reading

[TLELIST] Current TLEs

March 23rd 2026 PDT

0 HST 1 20580U 90037B 26081.92659514 .00009186 00000-0 30241-3 0 9999 2 20580 28.4722 309.6900 0001472 276.5317 83.5111 15.29684298775343 0 ISS (ZARYA) 1 25544U 98067A 26082.19556657 .00017435 00000-0 32964-3 0 9999 2 25544 51.6344 5.5946 0006193 222.9473 137.1033 15.48483260558425 0 CXO 1 25867U 99040B 26084.75190710 .00000929 00000-0 00000-0 0 9990 2 25867 54.8542 119.0759 7976359 310.7061 359.9918 0.37805875 17009 ...Continue Reading

[TLELIST] Current TLEs

March 22nd 2026 PDT

0 HST 1 20580U 90037B 26080.94796918 .00009017 00000-0 29689-3 0 9997 2 20580 28.4725 316.3669 0001497 262.8571 97.1855 15.29665795775190 0 ISS (ZARYA) 1 25544U 98067A 26081.16296743 .00015089 00000-0 28686-3 0 9991 2 25544 51.6343 10.6992 0006186 218.8034 141.2511 15.48444672558264 0 CXO 1 25867U 99040B 26082.10834991 .00000972 00000-0 00000-0 0 9991 2 25867 54.8006 119.1786 7981754 310.6747 0.2209 0.37809060 17009 ...Continue Reading

[TLELIST] Current TLEs

March 21st 2026 PDT

0 HST 1 20580U 90037B 26079.96933197 .00006928 00000-0 22655-3 0 9993 2 20580 28.4724 323.0445 0001514 249.9874 110.0559 15.29647672775042 0 ISS (ZARYA) 1 25544U 98067A 26079.87218435 .00009590 00000-0 18573-3 0 9992 2 25544 51.6346 17.0785 0006366 213.2716 146.7873 15.48402839558062 0 CXO 1 25867U 99040B 26082.10834991 .00000972 00000-0 00000-0 0 9991 2 25867 54.8006 119.1786 7981754 310.6747 0.2209 0.37809060 17009 ...Continue Reading

[TLELIST] Current TLEs

March 20th 2026 PDT

0 HST 1 20580U 90037B 26078.99068388 .00006738 00000-0 22019-3 0 9999 2 20580 28.4725 329.7224 0001538 237.6208 122.4239 15.29637314774898 0 ISS (ZARYA) 1 25544U 98067A 26079.16224066 .00008474 00000-0 16520-3 0 9991 2 25544 51.6345 20.5881 0006234 211.0869 148.9751 15.48388697557957 0 CXO 1 25867U 99040B 26079.46415603 .00001048 00000-0 00000-0 0 9996 2 25867 54.7244 119.3122 7985494 310.6329 0.3542 0.37808217 16989 ...Continue Reading

[TLELIST] Current TLEs

March 19th 2026 PDT

0 HST 1 20580U 90037B 26078.01202943 .00006585 00000-0 21509-3 0 9992 2 20580 28.4725 336.3997 0001574 225.3944 134.6524 15.29626908774743 0 ISS (ZARYA) 1 25544U 98067A 26078.12958500 .00009105 00000-0 17698-3 0 9992 2 25544 51.6344 25.6919 0006229 207.4819 152.5840 15.48370465557798 0 CXO 1 25867U 99040B 26079.46415603 .00001048 00000-0 00000-0 0 9996 2 25867 54.7244 119.3122 7985494 310.6329 0.3542 0.37808217 16989 ...Continue Reading

[TLELIST] Current TLEs

March 19th 2026 PDT

0 HST 1 20580U 90037B 26078.01202943 .00006585 00000-0 21509-3 0 9992 2 20580 28.4725 336.3997 0001574 225.3944 134.6524 15.29626908774743 0 ISS (ZARYA) 1 25544U 98067A 26078.12958500 .00009105 00000-0 17698-3 0 9992 2 25544 51.6344 25.6919 0006229 207.4819 152.5840 15.48370465557798 0 CXO 1 25867U 99040B 26079.46415603 .00001048 00000-0 00000-0 0 9996 2 25867 54.7244 119.3122 7985494 310.6329 0.3542 0.37808217 16989 ...Continue Reading

[TLELIST] Current TLEs

March 18th 2026 PDT

0 HST 1 20580U 90037B 26077.03336856 .00005936 00000-0 19324-3 0 9995 2 20580 28.4724 343.0766 0001638 212.8737 147.1757 15.29615021774597 0 ISS (ZARYA) 1 25544U 98067A 26077.16145852 .00007208 00000-0 14196-3 0 9995 2 25544 51.6338 30.4771 0006242 203.4545 156.6159 15.48351952557640 0 CXO 1 25867U 99040B 26079.46415603 .00001048 00000-0 00000-0 0 9996 2 25867 54.7244 119.3122 7985494 310.6329 0.3542 0.37808217 16989 ...Continue Reading
  • This mailing list is a public mailing list - anyone may join or leave, at any time.
  • This mailing list is announce-only.

International Space Station (ISS) / Hubble Space Telescope (HST) / Chandra X-Ray Observatory Orbital Data via EMAIL

Privacy Policy:

Private list